Date String (YYYY-MM-DD hh:mm:ss) UTC,Instrument flags,Ambient pressure (hPa),Sample flow (lpm),Bypass flow (lpm),Sample temperature (°C),Ambient temperature (°C),ASC tube jacket temperature (°C),LED temperature (°C),Box temperature (°C),Sample RH (%),Span deviation,Mass concentration (μg/m³),Mass concentration (μg/m³),Mass concentration (μg/m³)
DateTimeUTC,F1_M11,P_M11,Q1_M11,Q2_M11,T1_M11,T2_M11,T3_M11,T4_M11,T5_M11,U1_M11,ZSPAN_M11,X0_M11,X2_M11,X1_M11
2021-09-26 06:00:00,,0825.9,4.99,0.00,29.6,28.2,00.0,38.8,31.4,09.9,0002.1,0014.03,0007.49,0006.82
2021-09-26 06:01:00,,0825.9,5.01,0.00,29.7,28.3,00.0,38.8,31.4,09.8,0002.3,0013.90,0007.49,0006.83
2021-09-26 06:02:00,,0825.9,5.00,0.00,29.7,28.4,00.0,38.8,31.4,09.6,0002.2,0013.84,0007.55,0006.84
2021-09-26 06:03:00,,0825.9,5.00,0.00,29.7,28.5,00.0,38.8,31.4,09.6,0002.0,0014.43,0007.58,0006.86
2021-09-26 06:04:00,,0825.8,5.01,0.00,29.7,28.6,00.0,38.8,31.5,09.5,0002.5,0014.46,0007.63,0006.88
2021-09-26 06:05:00,,0825.9,5.01,0.00,29.8,28.6,00.0,38.8,31.5,09.5,0002.6,0014.37,0007.62,0006.87
2021-09-26 06:06:00,,0825.9,4.99,0.00,29.8,28.7,00.0,38.8,31.5,09.5,0002.2,0014.60,0007.66,0006.90
2021-09-26 06:07:00,,0825.9,4.99,0.00,29.8,28.7,00.0,38.8,31.5,09.6,0002.2,0014.77,0007.68,0006.89
2021-09-26 06:08:00,,0825.9,5.02,0.00,29.8,28.8,00.0,38.8,31.5,09.6,0002.1,0014.26,0007.66,0006.90
2021-09-26 06:09:00,,0825.9,4.99,0.00,29.8,28.8,00.0,38.9,31.6,09.6,0001.5,0014.71,0007.69,0006.90
2021-09-26 06:10:00,,0825.8,5.00,0.00,29.9,28.8,00.0,38.9,31.6,09.6,0001.4,0014.73,0007.69,0006.90
2021-09-26 06:11:00,,0825.8,5.00,0.00,29.9,28.8,00.0,38.9,31.6,09.5,0001.2,0014.92,0007.66,0006.90
2021-09-26 06:12:00,,0825.8,5.01,0.00,29.9,28.9,00.0,38.9,31.7,09.4,0001.0,0014.83,0007.70,0006.94
2021-09-26 06:13:00,,0825.8,5.00,0.00,29.9,28.9,00.0,38.9,31.7,09.4,0001.2,0014.78,0007.71,0006.96
2021-09-26 06:14:00,,0825.8,5.01,0.00,30.0,28.9,00.0,38.9,31.7,09.4,0001.3,0014.34,0007.74,0006.98
2021-09-26 06:15:00,,0825.8,5.00,0.00,30.0,29.0,00.0,39.0,31.8,09.3,0001.5,0014.16,0007.70,0006.96
2021-09-26 06:16:00,,0825.8,4.99,0.00,30.0,29.0,00.0,39.0,31.8,09.4,0001.2,0014.00,0007.68,0006.95
2021-09-26 06:17:00,,0825.8,5.00,0.00,30.0,29.0,00.0,39.0,31.8,09.5,0001.5,0013.28,0007.68,0006.92
2021-09-26 06:18:00,,0825.9,5.01,0.00,30.0,29.0,00.0,39.0,31.8,09.4,0001.5,0012.80,0007.67,0006.91
2021-09-26 06:19:00,,0825.8,5.00,0.00,30.1,29.1,00.0,39.0,31.9,09.3,0001.6,0013.28,0007.69,0006.92
2021-09-26 06:20:00,,0825.9,4.99,0.00,30.1,29.1,00.0,39.1,31.9,09.4,0001.8,0012.98,0007.65,0006.92
2021-09-26 06:21:00,,0825.8,5.00,0.00,30.1,29.1,00.0,39.1,31.9,09.3,0001.8,0012.96,0007.70,0006.94
2021-09-26 06:22:00,,0825.8,4.99,0.00,30.1,29.1,00.0,39.1,31.9,09.3,0001.7,0012.67,0007.68,0006.93
2021-09-26 06:23:00,,0825.9,5.00,0.00,30.1,28.1,00.0,39.1,31.7,09.2,0001.6,0012.59,0007.64,0006.92
2021-09-26 06:24:00,,0826.0,5.00,0.00,29.9,26.3,00.0,39.1,31.2,09.4,0001.4,0012.60,0007.64,0006.90
2021-09-26 06:25:00,,0825.9,5.00,0.00,29.8,26.3,00.0,39.0,31.1,09.4,0001.5,0013.07,0007.59,0006.88
2021-09-26 06:26:00,,0826.2,5.01,0.00,29.7,26.7,00.0,39.0,31.1,09.5,0001.3,0013.11,0007.60,0006.89
2021-09-26 06:27:00,,0826.0,4.99,0.00,29.7,27.1,00.0,38.9,31.2,09.5,0001.6,0013.18,0007.62,0006.88
2021-09-26 06:28:00,,0826.1,5.01,0.00,29.7,27.4,00.0,38.9,31.2,09.5,0001.8,0013.07,0007.59,0006.89
2021-09-26 06:29:00,,0826.0,5.00,0.00,29.7,27.7,00.0,38.9,31.3,09.6,0002.1,0012.98,0007.54,0006.88
2021-09-26 06:30:00,,0826.1,4.99,0.00,29.7,28.0,00.0,38.9,31.3,09.5,0002.2,0012.48,0007.54,0006.88
2021-09-26 06:31:00,,0825.9,5.01,0.00,29.7,28.1,00.0,38.8,31.4,09.5,0002.1,0012.21,0007.53,0006.88
2021-09-26 06:32:00,,0826.0,4.99,0.00,29.7,28.3,00.0,38.8,31.4,09.5,0002.1,0012.16,0007.50,0006.87
2021-09-26 06:33:00,,0825.9,5.01,0.00,29.7,28.4,00.0,38.8,31.4,09.5,0002.4,0012.05,0007.51,0006.88
2021-09-26 06:34:00,,0825.8,4.99,0.00,29.7,28.5,00.0,38.8,31.5,09.4,0002.8,0012.00,0007.47,0006.85
2021-09-26 06:35:00,,0825.8,5.00,0.00,29.8,28.6,00.0,38.8,31.5,09.5,0003.1,0012.00,0007.42,0006.83
2021-09-26 06:36:00,,0825.8,5.01,0.00,29.8,28.7,00.0,38.9,31.5,09.5,0003.2,0011.51,0007.41,0006.82
2021-09-26 06:37:00,,0825.8,4.99,0.00,29.8,28.7,00.0,38.9,31.5,09.6,0003.2,0011.52,0007.39,0006.79
2021-09-26 06:38:00,,0825.7,5.01,0.00,29.8,28.8,00.0,38.9,31.6,09.6,0002.9,0011.49,0007.37,0006.78
2021-09-26 06:39:00,,0825.7,4.99,0.00,29.9,28.8,00.0,38.9,31.7,09.6,0002.7,0011.62,0007.39,0006.78
2021-09-26 06:40:00,,0825.7,5.00,0.00,29.9,28.9,00.0,38.9,31.7,09.4,0002.9,0011.98,0007.42,0006.78
2021-09-26 06:41:00,,0825.7,5.01,0.00,29.9,28.9,00.0,38.9,31.7,09.4,0003.0,0012.55,0007.40,0006.77
2021-09-26 06:42:00,,0825.7,4.97,0.00,29.9,28.9,00.0,38.9,31.7,09.5,0003.1,0012.98,0007.43,0006.77
2021-09-26 06:43:00,,0825.7,5.00,0.00,30.0,29.0,00.0,39.0,31.7,09.4,0002.9,0013.70,0007.43,0006.77
2021-09-26 06:44:00,,0825.7,5.01,0.00,30.0,29.0,00.0,39.0,31.8,09.4,0002.8,0013.85,0007.41,0006.76
2021-09-26 06:45:00,,0825.7,5.00,0.00,30.0,29.0,00.0,39.0,31.7,09.4,0002.3,0014.14,0007.44,0006.78
2021-09-26 06:46:00,,0825.7,5.00,0.00,30.0,29.1,00.0,39.0,31.8,09.5,0002.1,0014.47,0007.46,0006.78
2021-09-26 06:47:00,,0825.7,4.99,0.00,30.0,29.1,00.0,39.0,31.8,09.4,0001.8,0014.37,0007.51,0006.80
2021-09-26 06:48:00,,0825.7,5.01,0.00,30.1,29.1,00.0,39.0,31.8,09.4,0001.7,0014.36,0007.49,0006.80
2021-09-26 06:49:00,,0825.7,5.00,0.00,30.1,29.1,00.0,39.1,31.9,09.4,0002.0,0014.36,0007.49,0006.80
2021-09-26 06:50:00,,0825.7,5.01,0.00,30.1,29.1,00.0,39.1,31.9,09.4,0002.4,0014.31,0007.49,0006.80
2021-09-26 06:51:00,,0825.7,5.01,0.00,30.1,29.2,00.0,39.1,31.9,09.7,0002.6,0013.95,0007.46,0006.79
2021-09-26 06:52:00,,0825.7,5.00,0.00,30.1,29.2,00.0,39.1,31.9,09.5,0002.3,0013.37,0007.46,0006.79
2021-09-26 06:53:00,,0825.7,5.00,0.00,30.2,29.2,00.0,39.1,31.9,09.4,0002.5,0012.95,0007.43,0006.78
2021-09-26 06:54:00,,0825.7,5.01,0.00,30.2,28.9,00.0,39.2,31.8,09.3,0003.0,0012.02,0007.39,0006.76
2021-09-26 06:55:00,,0825.7,5.00,0.00,30.0,26.9,00.0,39.1,31.3,09.3,0003.3,0011.68,0007.36,0006.75
2021-09-26 06:56:00,,0825.6,5.00,0.00,29.9,26.2,00.0,39.1,31.1,09.3,0003.7,0011.55,0007.35,0006.72
2021-09-26 06:57:00,,0825.6,5.00,0.00,29.8,26.5,00.0,39.0,31.1,09.4,0003.8,0011.08,0007.32,0006.69
2021-09-26 06:58:00,,0825.6,5.00,0.00,29.7,26.9,00.0,39.0,31.2,09.4,0004.0,0011.12,0007.27,0006.66
2021-09-26 06:59:00,,0825.6,5.02,0.00,29.7,27.3,00.0,39.0,31.2,09.4,0004.1,0011.29,0007.25,0006.63
